Retour au catalogue

COSMOS 2409

ActifNavigationPO
NORAD 28420·PAYLOAD·🇷🇺 Russia

Lancé Sep 23, 2004 depuis Plesetsk Cosmodrome

Loading…

Prochains Passages (prochaines 24 heures)

TLE

FraisSource: Space-Track

Époque: Sep 14, 2026, 22:46 UTC

1 28420U 04037B   26257.94907733  .00000085  00000-0  52559-3 0  9996
2 28420  82.4792 272.8944 0014840  83.9781 276.2991 12.45325004998726

Suivez COSMOS 2409 en temps réel avec AllMySat

Download on the App Store